ヘリン彗星

151P/Helin (2001)

English version
Home page
Updated on September 29, 2004

---------------------------------------------------------------------

・ プロフィール

符号 151P/2001 M1
検出日 2001年6月20日
発見光度 20等
発見者 M. Busch, A. Seib, F. Hormuth (Calar Alto)

・ 軌道要素

                    Epoch = 2001 Sept. 8.0 TT
     T = 2001 Sept.23.7154 TT         Peri. = 215.4212
     e = 0.565600                     Node  = 143.5365  2000.0
     q = 2.530770 AU                  Incl. =   4.7171
       a =  5.825893 AU    n = 0.0700907    P =  14.062 years

・ 星図

・ 光度変化

        m1 = -8.8 + 5 logΔ + 62.5 log r(t - 28)

---------------------------------------------------------------------

軌道要素は Dr. Brian G. Marsden の計算によるもので、 IAUC 7648 に掲載されたものです。
星図は StellaNavigator Ver.2.0 for Windows (アストロアーツ 編著 / アスキー出版局刊) で作成したものです。
光度グラフはComet for Windowsで作成したものです。

---------------------------------------------------------------------

Copyright(C) Seiichi Yoshida (comet@aerith.net). All rights reserved.